www.pogodaiklimat.ru

Погода и климат >> Архив погоды >> Австрия >> Лилиенфельд


ПОГОДА в Лилиенфельде

  • Прогноз погоды в Лилиенфельде
  • Монитор погоды в Лилиенфельде

АРХИВ ПОГОДЫ в Лилиенфельде

Время (UTC), дата Ветер
(напр.,м/с)
 
Видим.   Явления Облачность Т
(С)
Тd
(С)
f
(%)
Тe
(С)
Тes
(С)
Комфортность P
(гПа)
Po
(гПа)
Тmin
(С)
Tmax
(С)
R
(мм)
R24
(мм)
S
(см)
19 15.08 ЮЗ 3 н/о н/о +16.9 +9.7 63 +17 +17 1015.4 936.4 0.0
20 15.08 ЮЗ 3 н/о н/о +16.6 +9.4 62 +16 +16 1015.7 936.6
21 15.08 ЮЗ 4 н/о н/о +16.4 +10.4 68 +16 +16 1016.1 937.0 0.0
22 15.08 ЮЗ 3 н/о н/о +15.5 +10.2 71 +15 +15 1016.8 937.4
23 15.08 ЮЗ 2 н/о н/о +15.5 +10.1 70 +15 +15 1016.8 937.4
00 16.08 З 3 н/о н/о +15.7 +10.5 71 +15 +15 1016.9 937.5 0.0
01 16.08 ЮЗ 3 н/о н/о +14.7 +11.9 83 +14 +14 1017.1 937.5 0.0
02 16.08 З 5 н/о н/о +15.0 +11.7 81 +14 +14 1017.1 937.5
03 16.08 З 5
{13}
н/о н/о +14.7 +11.6 82 +13 +13 1017.5 937.8 0.0
04 16.08 З 6 н/о н/о +14.0 +11.6 85 +12 +12 1017.8 937.9 0.0
05 16.08 З 5 н/о н/о +13.6 +11.7 88 +12 +12 1018.2 938.2 0.0
06 16.08 З 5
{13}
н/о н/о +13.8 +11.6 87 +12 +12 1018.7 938.7 +13.6 +17.3 0.0
07 16.08 З 4 н/о в посл. час осадки н/о +13.7 +11.9 89 +12 +12 1018.9 938.9 0.0
08 16.08 ЮЗ 4 н/о н/о +14.4 +11.8 84 +13 +13 1019.0 939.1 0.0
09 16.08 З 5 н/о {осадки} н/о +15.9 +11.8 77 +15 +15 1018.6 939.2 0.0
10 16.08 З 4 н/о н/о +16.5 +11.3 71 +16 +16 1018.5 939.2
11 16.08 З 4 н/о н/о +17.0 +10.9 67 +17 +17 1018.2 939.1
12 16.08 ЮЗ 3 н/о {осадки} н/о +18.1 +10.7 62 +18 +18 1017.6 938.8 0.0
13 16.08 З 5 н/о н/о +19.2 +9.9 55 +20 +20 1017.1 938.6
14 16.08 З 4 н/о н/о +18.1 +9.8 58 +18 +18 1017.5 938.7
15 16.08 З 3 н/о н/о +18.7 +9.2 54 +19 +19 1017.2 938.5
16 16.08 З 4 н/о н/о +18.4 +9.2 55 +19 +19 1017.2 938.5
17 16.08 З 2 н/о н/о +18.2 +9.7 58 +19 +19 1017.2 938.4
18 16.08 З 2 н/о н/о +17.1 +9.9 63 +17 +17 1017.5 938.4 +13.6 +19.7 0.0
19 16.08 ЮЗ 2 н/о н/о +15.9 +10.0 68 +16 +16 1018.3 938.8
20 16.08 ЮЗ 2 н/о н/о +15.3 +9.9 70 +15 +15 1018.4 938.8
21 16.08 ЮЗ 3 н/о н/о +14.6 +9.8 73 +14 +14 1018.6 938.8
22 16.08 ЮЗ 3 н/о н/о +13.9 +9.6 75 +13 +13 1018.7 938.7
23 16.08 ЮЗ 3 н/о н/о +13.1 +9.5 79 +12 +12 1018.6 938.4
00 17.08 ЮЗ 2 н/о н/о +12.2 +9.3 82 +11 +11 1018.5 938.0
01 17.08 ЮЗ 3 н/о н/о +12.1 +9.1 82 +11 +11 1018.3 937.8
02 17.08 ЮЗ 3 н/о н/о +11.4 +8.9 85 +10 +10 1018.0 937.3
03 17.08 ЮЗ 3 н/о н/о +11.1 +8.7 85 +9 +9 1017.8 937.1
04 17.08 ЮЗ 4 н/о н/о +10.9 +8.5 85 +8 +8 1017.9 937.1
05 17.08 ЮЗ 3 н/о н/о +11.2 +8.5 83 +9 +9 1017.7 937.0
06 17.08 ЮЗ 3 н/о н/о +12.7 +8.9 78 +11 +11 1017.4 937.1 +10.4 +17.2
07 17.08 ЮЗ 3 н/о н/о +13.5 +8.8 73 +12 +12 1017.1 937.1
08 17.08 ЮЗ 2 н/о н/о +16.6 +9.2 62 +17 +17 1015.9 936.8 0.0
09 17.08 Ю 1 н/о н/о +19.0 +8.8 52 +21 +21 комфорт 1015.8 937.3 0.0
10 17.08 СВ 2 н/о н/о +20.5 +11.6 57 +23 +23 комфорт 1015.0 937.0
11 17.08 С 2 н/о н/о +21.2 +12.8 59 +23 +23 комфорт 1014.5 936.8
12 17.08 В 1 н/о н/о +22.1 +11.4 51 +24 +24 комфорт 1014.0 936.5 0.0
13 17.08 З 2 н/о н/о +24.0 +9.1 39 +25 +25 комфорт 1013.5 936.5 0.0
14 17.08 СЗ 2 н/о н/о +23.5 +9.1 40 +24 +24 комфорт 1013.8 936.6
15 17.08 З 3 н/о н/о +22.5 +8.8 42 +24 +24 комфорт 1013.7 936.3 0.0
16 17.08 З 2 н/о н/о +23.6 +9.3 40 +24 +24 комфорт 1013.0 935.9
17 17.08 СЗ 1 н/о н/о +21.9 +9.9 46 +23 +23 комфорт 1013.4 935.9
18 17.08 штиль 0 н/о н/о +20.4 +10.0 51 +22 +22 комфорт 1014.0 936.0 +12.4 +24.8 0.0
19 17.08 Ю 1 н/о н/о +19.9 +10.8 56 +22 +22 комфорт 1014.0 935.9
20 17.08 ЮЗ 1 н/о н/о +19.7 +10.7 56 +22 +22 комфорт 1013.9 935.8
21 17.08 ЮЗ 2 н/о н/о +19.4 +10.4 56 +21 +21 комфорт 1013.9 935.7
22 17.08 ЮЗ 3 н/о н/о +20.1 +9.4 50 +22 +22 комфорт 1013.4 935.4
23 17.08 ЮЗ 3 н/о н/о +19.1 +10.2 56 +20 +20 1013.6 935.3
00 18.08 ЮЗ 2 н/о н/о +19.9 +9.3 50 +22 +22 комфорт 1013.4 935.3
01 18.08 З 3 н/о н/о +22.1 +7.5 39 +23 +23 комфорт 1013.0 935.5
02 18.08 ЮЗ 1 н/о н/о +18.9 +9.5 54 +21 +21 комфорт 1013.4 935.1
03 18.08 ЮЗ 2 н/о н/о +19.8 +8.8 49 +21 +21 комфорт 1013.0 934.9
04 18.08 ЮЗ 3 н/о н/о +18.3 +9.2 55 +19 +19 1013.0 934.6
05 18.08 ЮЗ 4 н/о н/о +18.5 +9.3 55 +19 +19 1012.8 934.4
06 18.08 ЮЗ 2 н/о н/о +19.0 +9.9 56 +20 +20 1012.8 934.6 +17.9 +22.1
07 18.08 ЮЗ 3 н/о н/о +20.4 +10.4 53 +22 +22 комфорт 1012.6 934.8
08 18.08 ЮЗ 3 н/о н/о +23.5 +10.9 45 +25 +25 комфорт 1011.8 934.8
09 18.08 Ю 3 н/о н/о +26.7 +11.2 38 +28 +28 жарко 1010.8 934.7
10 18.08 штиль 0 н/о н/о +28.8 +13.3 39 +30 +30 жарко 1010.3 934.8
11 18.08 З 2 н/о н/о +29.4 +11.2 32 +30 +30 жарко 1010.2 934.8
12 18.08 З 3 н/о н/о +29.6 +10.8 31 +30 +30 жарко 1010.1 934.7
13 18.08 штиль 0 н/о н/о +30.6 +11.6 31 +31 +31 жарко 1009.7 934.6
14 18.08 Ю 1 н/о н/о +30.0 +11.7 32 +31 +31 жарко 1009.7 934.5
15 18.08 С 2 н/о н/о +30.4 +9.6 28 +30 +30 жарко 1009.6 934.4
16 18.08 СВ 2 н/о н/о +29.7 +10.1 30 +30 +30 жарко 1009.5 934.2
17 18.08 С 2 н/о н/о +28.3 +10.4 33 +29 +29 жарко 1009.7 934.0
18 18.08 С 2 н/о н/о +26.4 +11.2 39 +28 +28 жарко 1009.8 933.7 +18.7 +31.3
19 18.08 ЮЗ 3 н/о н/о +26.8 +10.5 36 +28 +28 жарко 1009.9 933.8
20 18.08 ЮЗ 3 н/о н/о +25.6 +10.6 39 +27 +27 жарко 1010.2 933.8
21 18.08 ЮЗ 3 н/о н/о +25.0 +9.2 37 +26 +26 жарко 1010.2 933.7
22 18.08 ЮЗ 4 н/о н/о +24.9 +7.6 33 +25 +25 комфорт 1010.1 933.5
23 18.08 ЮЗ 4 н/о н/о +23.1 +7.8 37 +24 +24 комфорт 1010.2 933.2
00 19.08 ЮЗ 3 н/о н/о +22.7 +6.9 36 +23 +23 комфорт 1010.3 933.1
01 19.08 ЮЗ 3 н/о н/о +22.3 +6.8 37 +23 +23 комфорт 1010.2 932.9
02 19.08 ЮЗ 3 н/о н/о +22.2 +7.0 37 +23 +23 комфорт 1010.4 933.1
03 19.08 З 2 н/о н/о +23.6 +10.8 44 +25 +25 комфорт 1011.8 934.8
04 19.08 З 6
{15}
н/о н/о +21.2 +13.4 61 +24 +24 комфорт 1014.1 936.4
05 19.08 З 6
{19}
н/о н/о +20.1 +14.1 68 +22 +22 комфорт 1015.7 937.6
06 19.08 З 6
{19}
н/о н/о +19.4 +14.2 72 +21 +21 комфорт 1016.8 938.5 +19.4 +27.2
07 19.08 З 3 н/о н/о +19.4 +13.4 68 +21 +21 комфорт 1017.2 938.8
08 19.08 З 3 н/о н/о +21.5 +13.7 61 +24 +24 комфорт 1016.5 938.7
09 19.08 ЮЗ 2 н/о н/о +22.5 +13.6 57 +26 +26 жарко 1016.5 939.0
10 19.08 З 1 н/о н/о +24.6 +13.0 48 +27 +27 жарко 1016.2 939.2
11 19.08 СЗ 2 н/о н/о +24.7 +13.0 48 +27 +27 жарко 1015.9 938.9
12 19.08 З 1 н/о н/о +24.9 +12.4 46 +27 +27 жарко 1015.9 939.0
13 19.08 С 2 н/о н/о +26.0 +14.1 48 +28 +28 жарко 1015.6 939.0
14 19.08 З 1 н/о н/о +26.3 +13.1 44 +28 +28 жарко 1015.3 938.8
15 19.08 С 3 н/о н/о +24.6 +12.3 46 +26 +26 жарко 1015.8 938.8
16 19.08 С 1 н/о н/о +24.2 +11.5 45 +26 +26 жарко 1015.8 938.7
17 19.08 З 3 н/о н/о +22.4 +12.8 55 +25 +25 комфорт 1017.3 939.7
18 19.08 З 3 н/о осадки н/о +17.6 +15.9 90 +18 +18 1019.3 940.4 +17.5 +26.9 0.8
19 19.08 ЮЗ 4 н/о в посл. час осадки н/о +17.3 +16.2 93 +17 +17 1019.7 940.7 0.2
20 19.08 ЮЗ 3 н/о н/о +17.5 +15.6 89 +17 +17 1019.9 940.9
21 19.08 ЮЗ 3 н/о {осадки} н/о +17.0 +16.2 95 +17 +17 1019.9 940.8 0.2
22 19.08 ЮЗ 3 н/о н/о +17.2 +16.0 93 +17 +17 1019.8 940.7
23 19.08 ЮЗ 3 н/о н/о +16.6 +16.2 97 +16 +16 1019.7 940.5
00 20.08 ЮЗ 3 н/о {осадки} н/о +16.5 +16.1 97 +16 +16 1019.3 940.1 0.2
01 20.08 ЮЗ 3 н/о н/о +16.3 +15.6 96 +16 +16 1019.5 940.2
02 20.08 ЮЗ 2 н/о н/о +15.9 +15.8 99 +16 +16 1020.2 940.8
03 20.08 ЮЗ 2 н/о н/о +15.8 +15.7 99 +16 +16 1020.2 940.7
04 20.08 ЮЗ 2 н/о н/о +15.8 +15.6 99 +16 +16 1020.4 940.9
05 20.08 ЮЗ 2 н/о н/о +16.1 +15.5 96 +16 +16 1020.8 941.4
06 20.08 ЮЗ 1 н/о в посл. час осадки н/о +16.8 +16.1 96 +18 +18 1020.5 941.3 +15.7 +17.8 0.6
07 20.08 ЮЗ 1 н/о в посл. час осадки н/о +16.5 +15.7 95 +17 +17 1020.7 941.4 0.1
08 20.08 штиль 0 н/о ливневой дождь н/о +18.4 +16.7 90 +19 +19 1019.8 941.1 0.1
09 20.08 С 1 н/о ливневой дождь н/о +21.2 +17.6 80 +25 +25 комфорт 1019.2 941.3 0.4
10 20.08 СВ 1 н/о н/о +22.7 +17.3 72 +28 +28 душно 1018.5 941.0
11 20.08 С 2 н/о н/о +24.6 +17.7 65 +29 +29 душно 1017.5 940.5
12 20.08 С 1 н/о {ливн. осадки} н/о +24.2 +16.7 63 +28 +28 душно 1017.3 940.2 0.4
13 20.08 СВ 3 н/о н/о +24.6 +16.4 60 +28 +28 душно 1016.7 939.8
14 20.08 С 2 н/о н/о +25.9 +16.9 58 +30 +30 душно 1016.2 939.6
15 20.08 С 3 н/о н/о +25.2 +17.2 61 +29 +29 душно 1015.8 939.1
16 20.08 С 1 н/о н/о +25.3 +17.2 61 +29 +29 душно 1015.6 938.9
17 20.08 С 1 н/о н/о +24.0 +17.1 65 +28 +28 душно 1015.6 938.6
18 20.08 СВ 1 н/о н/о +23.6 +16.6 65 +27 +27 жарко 1015.6 938.5 +16.3 +26.5 0.4
19 20.08 штиль 0 н/о н/о +23.0 +16.3 66 +28 +28 душно 1016.1 938.8
20 20.08 ЮЗ 1 н/о н/о +22.0 +16.7 72 +26 +26 душно 1016.5 938.9 0.0
21 20.08 СЗ 1 н/о н/о +20.9 +17.2 79 +26 +26 душно 1017.1 939.2 0.0
22 20.08 З 6
{16}
н/о н/о +18.7 +15.6 82 +19 +19 1019.6 940.9
23 20.08 З 6
{16}
н/о н/о +17.6 +15.2 86 +17 +17 1020.3 941.3
00 21.08 З 6
{16}
н/о осадки н/о +15.5 +14.6 94 +14 +14 1022.4 942.6 0.0
01 21.08 З 7
{18}
н/о осадки н/о +14.1 +13.0 93 +12 +12 1023.8 943.5 0.0
02 21.08 З 6
{16}
н/о осадки н/о +13.3 +12.5 95 +11 +11 1025.4 944.8 0.1
03 21.08 З 4
{18}
н/о осадки н/о +13.0 +12.1 94 +11 +11 1026.2 945.4 0.3
04 21.08 З 3 н/о в посл. час осадки н/о +12.9 +11.8 93 +11 +11 1026.7 945.8 0.0
05 21.08 ЮЗ 4 н/о в посл. час осадки н/о +13.0 +11.5 91 +11 +11 1027.3 946.4 0.0
06 21.08 ЮЗ 4
{18}
н/о {ливн. осадки} н/о +12.9 +11.5 91 +11 +11 1028.1 947.1 +12.9 +23.8 0.3
07 21.08 ЮЗ 1 н/о н/о +13.1 +11.4 89 +13 +13 1028.6 947.6
08 21.08 З 2 н/о н/о +13.4 +11.3 87 +13 +13 1028.5 947.6
09 21.08 З 1 н/о н/о +14.1 +11.4 84 +14 +14 1028.4 947.7
10 21.08 З 2 н/о н/о +14.4 +11.6 83 +14 +14 1028.5 947.9
11 21.08 З 1 н/о н/о +14.3 +11.1 81 +15 +15 1028.3 947.7
12 21.08 З 1 н/о н/о +15.2 +11.1 77 +16 +16 1028.0 947.6
13 21.08 С 1 н/о н/о +15.8 +11.0 73 +17 +17 1027.7 947.5 0.0
14 21.08 С 1 н/о н/о +15.7 +11.3 75 +16 +16 1027.3 947.1
15 21.08 С 1 н/о н/о +16.7 +11.6 72 +18 +18 1027.4 947.5 0.0
16 21.08 СЗ 1 н/о н/о +15.5 +11.4 77 +16 +16 1027.6 947.3
17 21.08 С 1 н/о н/о +15.4 +11.1 76 +16 +16 1027.7 947.4
18 21.08 З 1 н/о н/о +14.5 +11.2 81 +15 +15 1028.0 947.4 +12.8 +17.3 0.0
19 21.08 З 1 н/о н/о +14.1 +10.8 81 +14 +14 1028.0 947.3
20 21.08 ЮЗ 2 н/о н/о +13.6 +10.8 83 +13 +13 1028.2 947.4
21 21.08 ЮЗ 2 н/о н/о +13.8 +10.9 83 +13 +13 1028.3 947.5
22 21.08 ЮЗ 2 н/о н/о +13.3 +10.7 84 +13 +13 1028.4 947.5
23 21.08 ЮЗ 1 н/о н/о +13.0 +10.6 85 +13 +13 1028.1 947.1
00 22.08 штиль 0 н/о н/о +12.8 +10.4 85 +12 +12 1027.6 946.6
01 22.08 штиль 0 н/о н/о +12.3 +10.4 88 +12 +12 1027.5 946.4
02 22.08 С 1 н/о н/о +12.5 +10.8 89 +12 +12 1027.2 946.2
03 22.08 С 1 н/о н/о +12.5 +10.7 89 +12 +12 1027.0 946.0
04 22.08 С 2 н/о н/о +12.2 +10.6 90 +11 +11 1026.5 945.4
05 22.08 С 1 н/о н/о +12.7 +10.7 88 +13 +13 1026.6 945.7
06 22.08 С 2 н/о н/о +12.6 +11.0 90 +12 +12 1026.5 945.5 +12.1 +14.8
07 22.08 СВ 2 н/о н/о +12.5 +11.0 91 +12 +12 1026.2 945.2
08 22.08 СВ 2 н/о н/о +13.3 +11.4 88 +13 +13 1026.0 945.3
09 22.08 С 2 н/о н/о +16.1 +12.3 78 +16 +16 1025.2 945.3
10 22.08 С 3 н/о н/о +16.8 +12.6 76 +17 +17 1024.8 945.1
11 22.08 С 4 н/о н/о +15.8 +12.2 79 +15 +15 1025.1 945.1
12 22.08 С 3 н/о н/о +15.8 +12.3 80 +15 +15 1025.2 945.2
13 22.08 С 2 н/о н/о +17.0 +12.9 77 +17 +17 1024.7 945.1
14 22.08 С 3 н/о н/о +18.1 +13.3 74 +18 +18 1023.9 944.7
15 22.08 С 2 н/о н/о +18.4 +13.3 72 +19 +19 1023.9 944.7
16 22.08 С 3 н/о н/о +18.3 +13.4 73 +19 +19 1023.8 944.6
17 22.08 СВ 2 н/о н/о +18.0 +13.3 74 +19 +19 1024.0 944.7
18 22.08 СВ 2 н/о н/о +17.6 +13.1 75 +18 +18 1024.3 944.9 +12.4 +18.6
19 22.08 СВ 1 н/о н/о +17.4 +13.1 76 +18 +18 1025.3 945.8

 

Местоположение метеостанции Лилиенфельд (Австрия): широта 48.03 долгота 15.58 высота над уровнем моря 696 м.

В архиве по умолчанию представлена погода в Лилиенфельде за последнюю неделю. Архивные данные за месяц целиком и за предыдущие месяцы, начиная с января 2011 года, Вы можете получить, выбрав интересующий диапазон дат из раскрывающегося списка и нажав кнопку "Ввод!".


*Определитесь, кто Вы:
робот инопланетянин человек

Внимание! Время в таблицах - всемирное. Для получения местного времени необходимо прибавить поправку, которая равна 1 ч.

Смотрите также архив погоды в соседних городах и на ближайших метеорологических станциях:

Погода в Санкт-Пёльтене (Австрия) (19 км)
Погода в Марияхильфберге (Австрия) (29 км)
Погода в Санкт-Себастьяне (Австрия) (33 км)
Погода в Пухберг-ам-Шнеберге (Австрия) (37 км)
Погода в Раксе (Австрия) (38 км)
Погода в Яуерлинге (Австрия) (38 км)
Погода в Хоэ-Ванде (Австрия) (41 км)
Погода в Райхенау-ан-дер-Раксе (Австрия) (41 км)
Погода в Лунце (Австрия) (43 км)
Погода в Кремс-ан-дер-Донау (Австрия) (43 км)

Пояснения к столбцам:

Ветер - указаны скорость ветра в м/с - средняя за 10 мин, порывы в срок и между сроками (в фигурных скобках) и направление, откуда дует ветер: С - северный, СВ - северо-восточный, В - восточный, ЮВ - юго-восточный, Ю - южный, ЮЗ - юго-западный, З - западный, СЗ - северо-западный.
Видимость - горизонтальная дальность видимости в метрах или километрах. При видимости от 1 до 10 км при отсутствии осадков обычно наблюдается дымка, при ухудшении видимости до 1 км и менее - туман. В сухую погоду видимость может ухудшаться дымом, пылью или мглою.
Явления - указаны атмосферные явления, наблюдавшиеся в срок или в последний час перед сроком; фигурными скобками обозначены явления, наблюдавшиеся между сроками (за 1-3 часа до срока); квадратными скобками обозначены град или гололедные отложения с указанием их диаметра в мм.
Облачность - указаны через наклонную черту общая и нижняя облачность в баллах и высота нижней границы облаков в метрах; квадратными скобками обозначены формы облаков: Ci - перистые, Cs - перисто-слоистые, Cc - перисто-кучевые, Ac - высококучевые, As - высокослоистые, Sc - слоисто-кучевые, Ns - слоисто-дождевые, Cu - кучевые, Cb - кучево-дождевые. Подробнее классификацию облаков см. в Атласе облаков (PDF).
T - Температура воздуха - температура, измеренная на высоте 2 м над землей.
Td - Температура точки росы - температура, при понижении до которой содержащийся в воздухе водяной пар достигнет насыщения.
f - Относительная влажность воздуха - влажноcть воздуха, измеренная на высоте 2 м над землей.
Te - Эффективная температура - температура, которую ощущает одетый по сезону человек в тени. Характеристика душности погоды. При расчете учитывается влияние влажности воздуха и скорости ветра на теплоощущения человека.
Tes - Эффективная температура на солнце - температура, которую ощущает человек, с поправкой на солнечный нагрев. Характеристика знойности погоды. Зависит от высоты солнца над горизонтом, облачности и скорости ветра. Ночью, в пасмурную погоду, а также при ветре 12 м/с и более поправка равна нулю.
P - Атмосферное давление - приведенное к уровню моря атмосферное давление.
Po - Атмосферное давление - измеренное на уровне метеостанции атмосферное давление.
Tmin - Минимальная температура - минимум температуры воздуха на высоте 2 м над землей.
Tmax - Максимальная температура - максимум температуры воздуха на высоте 2 м над землей.
R - Количество осадков - Количество выпавших осадков за период времени, мм. При наведении курсора мыши на число - период времени, за который выпало указанное количество осадков.
R24 - Количество осадков - Количество выпавших осадков за 24 часа, мм.
S - Снежный покров - Высота снежного покрова, см. При наведении курсора мыши на число - состояние снежного покрова и степень покрытия местности в баллах.